Regional Weather Roundup
Issued by NWS Sterling, VA

Home | Current Version | Previous Version | Text Only | Print | Product List | Glossary On
Versions: 1 2 3 4 5 6 7 8 9 10 11 12 13 14 15 16 17 18 19 20 21 22 23 24 25 26 27 28
000
ASUS41 KLWX 281411
RWRLWX

REGIONAL WEATHER ROUNDUP
NATIONAL WEATHER SERVICE BALTIMORE MD/WASHINGTON DC
1000 AM EDT FRI APR 28 2017

Note: "FAIR" indicates few or no clouds below 12,000 feet
with no significant weather and/or obstructions to visibility.
 TC=TEMPERATURE CELSIUS

 * =Non NWS site. Station does not report precipitation (e.g. rain,
    snow, etc.), thunder, or fog.

DCZ001-MDZ009-015-VAZ040>042-051-053>054-281500-
WASHINGTON METRO

CITY           SKY/WX    TMP DP  RH WIND       PRES   REMARKS
WASHINGTON NAT SUNNY     76  61  59 N8        30.03S
DULLES         MOSUNNY   72  58  61 NW3       30.03S
ANDREWS AFB    SUNNY     74  60  59 NW6       30.02S
FT BELVOIR     SUNNY     76  59  54 N5        30.03R
QUANTICO       MOSUNNY   70  66  87 S5        30.04R
COLLEGE PARK*  SUNNY     74  58  58 NW5       30.02S
LEESBURG*      SUNNY     73  61  64 N7        30.04S
MANASSAS*        N/A     74  61  63 NE6       30.04R

$$

MDZ006>007-011-014-281500-
BALTIMORE METRO

CITY           SKY/WX    TMP DP  RH WIND       PRES   REMARKS
BWI AIRPORT    MOSUNNY   75  59  57 W6        30.02R
MD SCIENCE CTR   N/A     77  57  50 MISG      30.02R
MARTIN STATE   SUNNY     77  61  57 W8        30.03R
ANNAPOLIS      SUNNY     74  60  61 NW5       30.02R
FORT MEADE*    SUNNY     73  57  56 N7        30.05S

$$

MDZ012-015-019>023-281500-
MARYLAND EASTERN SHORE

CITY           SKY/WX    TMP DP  RH WIND       PRES   REMARKS
OCEAN CITY     MOSUNNY   69  65  86 S8        30.04R
SALISBURY      MOSUNNY   74  66  76 W8        30.03R
BAY BRIDGE AP* SUNNY     72  61  68 W3        30.03R HAZE
CAMBRIDGE*     SUNNY     73  64  73 N6        30.03S
EASTON*        SUNNY     75  63  64 NW3       30.07R

$$

MDZ017>025-281500-
SOUTHERN MARYLAND

CITY           SKY/WX    TMP DP  RH WIND       PRES   REMARKS
PATUXENT RIVER MOSUNNY   75  67  76 NW6       30.03R
ST INIGOES     SUNNY     73  66  78 SW7       30.03R
LEONARDTOWN*   SUNNY     73  63  68 W3        30.05R

$$

MDZ003>005-281500-
NORTH CENTRAL MARYLAND

CITY           SKY/WX    TMP DP  RH WIND       PRES   REMARKS
FREDERICK*     SUNNY     73  61  64 W12       30.06R
HAGERSTOWN APT SUNNY     70  53  54 NW9       30.03S
WESTMINSTER*   SUNNY     72  55  56 NW7       30.04S

$$

MDZ501>502-281500-
WESTERN MARYLAND

CITY           SKY/WX    TMP DP  RH WIND       PRES   REMARKS
OAKLAND*       SUNNY     55  46  71 CALM      30.11R
CUMBERLAND*    SUNNY     68  54  60 E3        30.09R

$$

VAZ025>031-281500-
SHENANDOAH VALLEY

CITY           SKY/WX    TMP DP  RH WIND       PRES   REMARKS
WINCHESTER*    SUNNY     68  55  64 SE5       30.03F
FRONT ROYAL*   SUNNY     72  59  64 CALM      30.04R
LURAY*         SUNNY     70  63  78 CALM      30.05R
NEW MARKET*    SUNNY     68  60  74 SW3       30.04S
STAUNTON*      SUNNY     66  60  81 CALM      30.08S
WAYNESBORO*    SUNNY     67  63  87 CALM      30.07S

$$

WVZ021-048>050-054>055-281500-
EASTERN WEST VIRGINIA PANHANDLE

CITY           SKY/WX    TMP DP  RH WIND       PRES   REMARKS
MARTINSBURG    SUNNY     71  55  56 NW8       30.02F
PETERSBURG*    SUNNY     65  61  88 CALM      30.06R

$$

VAZ036>039-050-281500-
CENTRAL FOOTHILLS

CITY           SKY/WX    TMP DP  RH WIND       PRES   REMARKS
CHARLOTTESVILL SUNNY     75  63  66 CALM      30.03R
CULPEPER*      SUNNY     74  62  64 E5        30.04R
ORANGE*        SUNNY     73  61  64 CALM      30.03R
GORDONSVILLE*  SUNNY     75  60  59 CALM      30.03R
WARRENTON*     SUNNY     75  59  55 NE3       30.03R

$$

VAZ055>057-281500-
NORTH AND CENTRAL PIEDMONT

CITY           SKY/WX    TMP DP  RH WIND       PRES   REMARKS
FREDERICKSBRG* SUNNY     75  62  65 E5        30.02S
STAFFORD*      SUNNY     74  64  69 E5        30.06F

$$

NCZ024-NYZ072-PAZ021-071-VAZ022-071-281500-
OTHER REGIONAL OBSERVATIONS

CITY           SKY/WX    TMP DP  RH WIND       PRES   REMARKS
NEW YORK CITY  MOSUNNY   66  61  84 W5        30.01R HAZE
PHILADELPHIA   MOSUNNY   73  61  65 SW8       30.00R
PITTSBURGH     MOSUNNY   58  48  69 SW5       30.07R
ROANOKE        MOSUNNY   63  61  93 CALM      30.09R FOG
RICHMOND       PTSUNNY   74  68  81 SW7       30.04R
RALEIGH        MOSUNNY   77  68  73 SW7       30.07R

$$

ANZ530>537-281500-
MARINE OBSERVATIONS

STATION/POSITION TIME  TEMP    WIND        PRES
                       AIR SEA DIR/SP/G
                 (UTC) (F)     (DEG/KT/KT) (MB)
THOMAS PT LIGHT  1400   69 58  110/  4/  4   N/A
BALT KEY BRIDGE  1348   71      CALM  /  2 1016.7R
COVE POINT       1348   68      40/  3/  4 1017.5R
LEWISETTA        1348   72 65  260/  5/  6 1016.9R
SOLOMONS ISLAND  1348   74 60  270/  4/  6   N/A
PINEY POINT      1348          360/  1/  1   N/A

$$





USA.gov is the U.S. government's official web portal to all federal, state and local government web resources and services.